CFG4872 EDDL-EDDF

Flight info

Callsign CFG4872
Flight time 0h 37m
Altitude 21000
Route COL4H COL T911 ROLIS ROLIS5A
Aircraft A321/M-SDE3FGHIRWY/LB1

Departure

Time 2026-05-04 19:20
Airport Düsseldorf Airport (EDDL)

Arrival

Time 2026-05-04 19:57
Airport Frankfurt Main Airport (EDDF)
Time Latitude Longitude Altitude Speed Heading
2026-05-04 18:15 51.27867 6.76385 128 ft 0 kts 47°
2026-05-04 18:49 51.27866 6.76383 128 ft 2 kts 47°
2026-05-04 18:49 51.27852 6.76363 126 ft 3 kts 49°
2026-05-04 18:49 51.27840 6.76328 128 ft 4 kts 87°
2026-05-04 18:50 51.27841 6.76288 127 ft 2 kts 89°
2026-05-04 18:50 51.27840 6.76250 126 ft 4 kts 90°
2026-05-04 18:50 51.27841 6.76207 128 ft 4 kts 91°
2026-05-04 18:50 51.27841 6.76164 128 ft 4 kts 89°
2026-05-04 18:51 51.27840 6.76124 129 ft 4 kts 79°
2026-05-04 18:51 51.27831 6.76085 127 ft 4 kts 52°
2026-05-04 18:51 51.27811 6.76058 124 ft 4 kts 24°
2026-05-04 18:51 51.27786 6.76045 123 ft 4 kts
2026-05-04 18:52 51.27764 6.76043 125 ft 1 kts
2026-05-04 18:52 51.27763 6.76043 125 ft 0 kts
2026-05-04 18:54 51.27765 6.76043 125 ft 1 kts
2026-05-04 18:54 51.27808 6.76044 124 ft 10 kts
2026-05-04 18:54 51.27876 6.76047 126 ft 9 kts
2026-05-04 18:54 51.27942 6.76049 128 ft 9 kts
2026-05-04 18:55 51.28000 6.76049 126 ft 8 kts 359°
2026-05-04 18:55 51.28100 6.76030 127 ft 6 kts 353°
2026-05-04 18:55 51.28156 6.76080 127 ft 14 kts 47°
2026-05-04 18:56 51.28237 6.76246 127 ft 23 kts 52°
2026-05-04 18:56 51.28337 6.76457 124 ft 24 kts 52°
2026-05-04 18:56 51.28438 6.76669 123 ft 24 kts 53°
2026-05-04 18:56 51.28540 6.76885 124 ft 28 kts 53°
2026-05-04 18:57 51.28665 6.77149 127 ft 30 kts 52°
2026-05-04 18:57 51.28792 6.77413 125 ft 30 kts 52°
2026-05-04 18:57 51.28914 6.77667 128 ft 29 kts 52°
2026-05-04 18:57 51.29025 6.77895 127 ft 23 kts 52°
2026-05-04 18:58 51.29091 6.78039 130 ft 10 kts 53°
2026-05-04 18:58 51.29100 6.78060 132 ft 0 kts 53°
2026-05-04 19:00 51.29101 6.78062 132 ft 2 kts 53°
2026-05-04 19:00 51.29133 6.78128 134 ft 8 kts 52°
2026-05-04 19:00 51.29163 6.78189 136 ft 8 kts 51°
2026-05-04 19:01 51.29249 6.78314 141 ft 9 kts 37°
2026-05-04 19:01 51.29262 6.78330 141 ft 0 kts 36°
2026-05-04 19:04 51.29263 6.78330 141 ft 1 kts 36°
2026-05-04 19:04 51.29266 6.78334 142 ft 0 kts 36°
2026-05-04 19:05 51.29274 6.78343 142 ft 4 kts 36°
2026-05-04 19:05 51.29290 6.78361 143 ft 1 kts 36°
2026-05-04 19:05 51.29290 6.78362 143 ft 0 kts 36°
2026-05-04 19:06 51.29305 6.78380 144 ft 6 kts 36°
2026-05-04 19:06 51.29323 6.78401 145 ft 0 kts 36°
2026-05-04 19:10 51.29332 6.78411 145 ft 5 kts 36°
2026-05-04 19:10 51.29372 6.78453 148 ft 5 kts 26°
2026-05-04 19:10 51.29375 6.78455 148 ft 0 kts 24°
2026-05-04 19:13 51.29396 6.78470 149 ft 7 kts 24°
2026-05-04 19:13 51.29468 6.78479 150 ft 12 kts 336°
2026-05-04 19:13 51.29487 6.78408 149 ft 7 kts 248°
2026-05-04 19:13 51.29479 6.78389 148 ft 0 kts 237°
2026-05-04 19:19 51.29467 6.78360 148 ft 23 kts 234°
2026-05-04 19:20 51.29201 6.77800 133 ft 99 kts 232°
2026-05-04 19:20 51.28659 6.76672 144 ft 151 kts 232°
2026-05-04 19:20 51.28031 6.75331 754 ft 148 kts 232°
2026-05-04 19:20 51.27419 6.73979 1422 ft 149 kts 231°
2026-05-04 19:21 51.26774 6.72594 1827 ft 165 kts 232°
2026-05-04 19:21 51.26050 6.71025 2164 ft 183 kts 232°
2026-05-04 19:21 51.25257 6.69293 2448 ft 203 kts 232°
2026-05-04 19:21 51.24352 6.67367 2712 ft 231 kts 232°
2026-05-04 19:22 51.23334 6.65239 3250 ft 251 kts 229°
2026-05-04 19:22 51.21903 6.63673 4042 ft 258 kts 195°
2026-05-04 19:22 51.20101 6.63514 4998 ft 261 kts 177°
2026-05-04 19:22 51.18299 6.63759 5961 ft 265 kts 174°
2026-05-04 19:23 51.16424 6.64111 6671 ft 271 kts 171°
2026-05-04 19:23 51.14692 6.65197 7192 ft 276 kts 145°
2026-05-04 19:23 51.13448 6.67504 7485 ft 278 kts 118°
2026-05-04 19:23 51.13067 6.70534 7743 ft 286 kts 91°
2026-05-04 19:24 51.13182 6.73701 7925 ft 288 kts 90°
2026-05-04 19:24 51.13311 6.76882 7981 ft 288 kts 90°
2026-05-04 19:24 51.13333 6.80061 7968 ft 284 kts 102°
2026-05-04 19:24 51.12716 6.82986 7972 ft 276 kts 124°
2026-05-04 19:25 51.11639 6.85495 7973 ft 274 kts 129°
2026-05-04 19:25 51.10533 6.87982 7974 ft 275 kts 129°
2026-05-04 19:25 51.09417 6.90483 8602 ft 278 kts 129°
2026-05-04 19:25 51.08292 6.93003 9591 ft 280 kts 129°
2026-05-04 19:26 51.07162 6.95529 10297 ft 292 kts 129°
2026-05-04 19:26 51.05937 6.98258 10585 ft 315 kts 129°
2026-05-04 19:26 51.04688 7.01219 11204 ft 327 kts 121°
2026-05-04 19:26 51.03976 7.04704 11956 ft 336 kts 105°
2026-05-04 19:27 51.03528 7.08372 12750 ft 341 kts 103°
2026-05-04 19:27 51.03089 7.12102 13513 ft 345 kts 103°
2026-05-04 19:27 51.02649 7.15874 14211 ft 350 kts 103°
2026-05-04 19:27 51.02202 7.19690 14894 ft 354 kts 103°
2026-05-04 19:28 51.01760 7.23428 15553 ft 357 kts 103°
2026-05-04 19:28 51.01167 7.27206 16199 ft 358 kts 115°
2026-05-04 19:28 50.99900 7.30575 16863 ft 356 kts 134°
2026-05-04 19:28 50.98027 7.33097 17558 ft 355 kts 151°
2026-05-04 19:29 50.95889 7.35088 18277 ft 358 kts 152°
2026-05-04 19:29 50.93715 7.37071 18789 ft 362 kts 153°
2026-05-04 19:29 50.91528 7.39056 18959 ft 363 kts 153°
2026-05-04 19:29 50.89341 7.41042 19006 ft 363 kts 153°
2026-05-04 19:30 50.87151 7.43031 18997 ft 362 kts 152°
2026-05-04 19:30 50.84962 7.45028 18997 ft 362 kts 152°
2026-05-04 19:30 50.82778 7.47024 18997 ft 362 kts 152°
2026-05-04 19:30 50.80593 7.49018 18996 ft 362 kts 152°
2026-05-04 19:31 50.78440 7.50982 18996 ft 362 kts 152°
2026-05-04 19:31 50.76254 7.52976 19007 ft 363 kts 153°
2026-05-04 19:31 50.74065 7.54969 18961 ft 363 kts 153°
2026-05-04 19:31 50.71889 7.56952 18716 ft 357 kts 153°
2026-05-04 19:32 50.69766 7.58883 18480 ft 347 kts 153°
2026-05-04 19:32 50.67704 7.60756 18249 ft 338 kts 153°
2026-05-04 19:32 50.65686 7.62582 17988 ft 330 kts 153°
2026-05-04 19:32 50.63719 7.64358 17712 ft 322 kts 153°
2026-05-04 19:33 50.61787 7.66095 17436 ft 318 kts 153°
2026-05-04 19:33 50.59873 7.67813 17142 ft 315 kts 153°
2026-05-04 19:33 50.57968 7.69522 16662 ft 316 kts 154°
2026-05-04 19:33 50.56055 7.71234 16190 ft 316 kts 153°
2026-05-04 19:34 50.54150 7.72945 15739 ft 316 kts 153°
2026-05-04 19:34 50.52282 7.74630 15248 ft 309 kts 153°
2026-05-04 19:34 50.50426 7.76311 14718 ft 305 kts 153°
2026-05-04 19:34 50.48629 7.77934 14266 ft 299 kts 153°
2026-05-04 19:35 50.46846 7.79538 13824 ft 293 kts 154°
2026-05-04 19:35 50.45079 7.81122 13375 ft 286 kts 154°
2026-05-04 19:35 50.43368 7.82735 12934 ft 287 kts 149°
2026-05-04 19:35 50.41800 7.84640 12681 ft 292 kts 145°
2026-05-04 19:36 50.40208 7.86624 12411 ft 293 kts 145°
2026-05-04 19:36 50.38609 7.88613 12125 ft 293 kts 145°
2026-05-04 19:36 50.37015 7.90589 11855 ft 292 kts 146°
2026-05-04 19:36 50.35421 7.92558 11582 ft 291 kts 146°
2026-05-04 19:37 50.33836 7.94525 11305 ft 292 kts 144°
2026-05-04 19:37 50.32440 7.97138 11009 ft 328 kts 120°
2026-05-04 19:37 50.31821 8.00666 10761 ft 358 kts 101°
2026-05-04 19:37 50.31480 8.04710 10478 ft 387 kts 100°
2026-05-04 19:38 50.31156 8.08887 10198 ft 381 kts 99°
2026-05-04 19:38 50.30860 8.12898 10040 ft 364 kts 99°
2026-05-04 19:38 50.30582 8.16708 9972 ft 346 kts 100°
2026-05-04 19:38 50.30311 8.20337 9978 ft 328 kts 100°
2026-05-04 19:39 50.30042 8.23805 9985 ft 314 kts 101°
2026-05-04 19:39 50.29767 8.27180 9979 ft 311 kts 101°
2026-05-04 19:39 50.29487 8.30522 9969 ft 310 kts 101°
2026-05-04 19:39 50.29211 8.33845 9598 ft 306 kts 101°
2026-05-04 19:40 50.28942 8.37135 9217 ft 304 kts 100°
2026-05-04 19:40 50.28673 8.40413 8852 ft 302 kts 100°
2026-05-04 19:40 50.28406 8.43653 8500 ft 300 kts 100°
2026-05-04 19:40 50.28139 8.46879 8251 ft 299 kts 100°
2026-05-04 19:41 50.27875 8.50054 7997 ft 297 kts 100°
2026-05-04 19:41 50.27610 8.53251 7744 ft 296 kts 100°
2026-05-04 19:41 50.27345 8.56434 7490 ft 295 kts 100°
2026-05-04 19:41 50.27080 8.59606 7239 ft 293 kts 100°
2026-05-04 19:42 50.26817 8.62741 6956 ft 291 kts 100°
2026-05-04 19:42 50.26555 8.65887 6656 ft 290 kts 100°
2026-05-04 19:42 50.26293 8.68996 6369 ft 288 kts 100°
2026-05-04 19:42 50.26030 8.72098 6061 ft 286 kts 100°
2026-05-04 19:43 50.25771 8.75133 5805 ft 285 kts 99°
2026-05-04 19:43 50.25506 8.78237 5547 ft 284 kts 99°
2026-05-04 19:43 50.25245 8.81281 5298 ft 283 kts 99°
2026-05-04 19:43 50.24979 8.84325 5074 ft 281 kts 99°
2026-05-04 19:44 50.24722 8.87292 5009 ft 281 kts 99°
2026-05-04 19:44 50.24461 8.90337 5017 ft 281 kts 99°
2026-05-04 19:44 50.24294 8.93386 5019 ft 282 kts 92°
2026-05-04 19:44 50.24349 8.96451 5020 ft 282 kts 86°
2026-05-04 19:45 50.24618 8.99499 5024 ft 283 kts 80°
2026-05-04 19:45 50.25099 9.02487 5025 ft 284 kts 73°
2026-05-04 19:45 50.25760 9.05393 5024 ft 284 kts 71°
2026-05-04 19:45 50.26441 9.08295 5025 ft 284 kts 71°
2026-05-04 19:46 50.27117 9.11196 5022 ft 284 kts 71°
2026-05-04 19:46 50.27579 9.14143 5020 ft 282 kts 90°
2026-05-04 19:46 50.27206 9.17094 5026 ft 275 kts 117°
2026-05-04 19:46 50.26070 9.19332 5020 ft 255 kts 142°
2026-05-04 19:47 50.24547 9.20473 5027 ft 235 kts 172°
2026-05-04 19:47 50.23022 9.20201 5023 ft 215 kts 205°
2026-05-04 19:47 50.21872 9.18889 5015 ft 197 kts 222°
2026-05-04 19:47 50.20911 9.17453 5013 ft 183 kts 224°
2026-05-04 19:48 50.20019 9.16073 5019 ft 179 kts 224°
2026-05-04 19:48 50.19271 9.14532 5015 ft 180 kts 246°
2026-05-04 19:48 50.18815 9.12716 5044 ft 180 kts 247°
2026-05-04 19:48 50.18363 9.10894 5037 ft 180 kts 247°
2026-05-04 19:49 50.17886 9.09088 5029 ft 179 kts 242°
2026-05-04 19:49 50.17366 9.07325 5026 ft 179 kts 245°
2026-05-04 19:49 50.16908 9.05538 5024 ft 180 kts 247°
2026-05-04 19:49 50.16469 9.03714 5023 ft 180 kts 248°
2026-05-04 19:50 50.16037 9.01881 5020 ft 180 kts 248°
2026-05-04 19:50 50.15614 9.00073 5019 ft 180 kts 248°
2026-05-04 19:50 50.15180 8.98218 5019 ft 180 kts 248°
2026-05-04 19:50 50.14752 8.96389 5020 ft 180 kts 248°
2026-05-04 19:51 50.14322 8.94556 5017 ft 180 kts 248°
2026-05-04 19:51 50.13893 8.92725 5016 ft 180 kts 248°
2026-05-04 19:51 50.13607 8.91507 5017 ft 180 kts 248°
2026-05-04 19:51 50.13037 8.89078 5018 ft 180 kts 248°
2026-05-04 19:52 50.12745 8.87836 5014 ft 180 kts 248°
2026-05-04 19:52 50.12318 8.86017 4926 ft 180 kts 248°
2026-05-04 19:52 50.11891 8.84202 4716 ft 180 kts 248°
2026-05-04 19:52 50.11460 8.82373 4479 ft 179 kts 249°
2026-05-04 19:53 50.11041 8.80598 4231 ft 179 kts 249°
2026-05-04 19:53 50.10613 8.78782 3977 ft 179 kts 249°
2026-05-04 19:53 50.10184 8.76966 3730 ft 178 kts 249°
2026-05-04 19:53 50.09758 8.75161 3472 ft 177 kts 250°
2026-05-04 19:54 50.09327 8.73338 3216 ft 177 kts 250°
2026-05-04 19:54 50.08899 8.71531 2955 ft 177 kts 250°
2026-05-04 19:54 50.08473 8.69734 2710 ft 177 kts 250°
2026-05-04 19:54 50.08048 8.67942 2469 ft 176 kts 250°
2026-05-04 19:55 50.07630 8.66177 2212 ft 176 kts 251°
2026-05-04 19:55 50.07212 8.64419 1985 ft 166 kts 251°
2026-05-04 19:55 50.06832 8.62824 1737 ft 150 kts 252°
2026-05-04 19:55 50.06477 8.61333 1522 ft 145 kts 252°
2026-05-04 19:56 50.06134 8.59889 1317 ft 141 kts 252°
2026-05-04 19:56 50.05799 8.58469 1100 ft 139 kts 251°
2026-05-04 19:56 50.05466 8.57075 915 ft 136 kts 251°
2026-05-04 19:56 50.05145 8.55697 729 ft 134 kts 252°
2026-05-04 19:57 50.04822 8.54337 567 ft 133 kts 249°
2026-05-04 19:57 50.04492 8.52996 365 ft 132 kts 250°
2026-05-04 19:57 50.04202 8.51810 337 ft 89 kts 253°
2026-05-04 19:57 50.04077 8.51257 327 ft 37 kts 247°
2026-05-04 19:58 50.03930 8.50947 325 ft 34 kts 220°
2026-05-04 19:58 50.03823 8.50847 330 ft 10 kts 184°
2026-05-04 19:58 50.03790 8.50877 331 ft 0 kts 124°
2026-05-04 19:58 50.03792 8.50965 334 ft 19 kts 74°
2026-05-04 19:59 50.03850 8.51215 336 ft 26 kts 69°
2026-05-04 19:59 50.03914 8.51479 332 ft 26 kts 69°
2026-05-04 19:59 50.03977 8.51741 334 ft 26 kts 70°
2026-05-04 19:59 50.04038 8.51996 338 ft 25 kts 69°
2026-05-04 20:00 50.04096 8.52238 354 ft 23 kts 69°
2026-05-04 20:00 50.04150 8.52462 351 ft 21 kts 69°
2026-05-04 20:00 50.04199 8.52667 357 ft 21 kts 70°
2026-05-04 20:00 50.04255 8.52908 359 ft 27 kts 70°
2026-05-04 20:01 50.04323 8.53188 362 ft 27 kts 69°
2026-05-04 20:01 50.04381 8.53430 372 ft 20 kts 71°
2026-05-04 20:01 50.04403 8.53630 375 ft 18 kts 84°
2026-05-04 20:01 50.04416 8.53827 375 ft 18 kts 84°
2026-05-04 20:02 50.04428 8.54020 375 ft 18 kts 84°
2026-05-04 20:02 50.04445 8.54273 375 ft 30 kts 84°
2026-05-04 20:02 50.04428 8.54590 367 ft 29 kts 116°
2026-05-04 20:02 50.04309 8.54774 360 ft 25 kts 157°
2026-05-04 20:03 50.04184 8.54844 357 ft 14 kts 160°
2026-05-04 20:03 50.04153 8.54862 358 ft 0 kts 159°
2026-05-04 20:03 50.04143 8.54868 354 ft 0 kts 160°
2026-05-04 20:04 50.04142 8.54869 354 ft 2 kts 160°
2026-05-04 20:04 50.04098 8.54894 351 ft 10 kts 160°
2026-05-04 20:04 50.04012 8.54943 358 ft 15 kts 159°
2026-05-04 20:04 50.03907 8.55006 355 ft 15 kts 159°
2026-05-04 20:05 50.03850 8.55103 352 ft 12 kts 86°
2026-05-04 20:05 50.03883 8.55259 355 ft 19 kts 71°
2026-05-04 20:05 50.03933 8.55462 357 ft 19 kts 68°
2026-05-04 20:05 50.03975 8.55638 354 ft 16 kts 70°
2026-05-04 20:06 50.03999 8.55743 357 ft 3 kts 70°
2026-05-04 20:06 50.04000 8.55747 356 ft 0 kts 70°
2026-05-04 20:06 50.04008 8.55778 355 ft 7 kts 69°
2026-05-04 20:06 50.04033 8.55882 357 ft 14 kts 69°
2026-05-04 20:07 50.04071 8.56051 358 ft 20 kts 72°
2026-05-04 20:07 50.04123 8.56260 354 ft 19 kts 70°
2026-05-04 20:07 50.04153 8.56384 358 ft 6 kts 70°
2026-05-04 20:07 50.04156 8.56398 358 ft 0 kts 70°
2026-05-04 20:08 50.04162 8.56424 358 ft 4 kts 69°
2026-05-04 20:08 50.04169 8.56452 360 ft 3 kts 69°
2026-05-04 20:09 50.04181 8.56500 357 ft 4 kts 69°
2026-05-04 20:09 50.04185 8.56519 361 ft 1 kts 69°
2026-05-04 20:09 50.04198 8.56570 361 ft 10 kts 70°
2026-05-04 20:09 50.04233 8.56722 359 ft 19 kts 72°
2026-05-04 20:10 50.04286 8.56940 363 ft 22 kts 69°
2026-05-04 20:10 50.04335 8.57150 361 ft 21 kts 71°
2026-05-04 20:10 50.04393 8.57394 368 ft 28 kts 70°
2026-05-04 20:10 50.04465 8.57693 368 ft 27 kts 69°
2026-05-04 20:11 50.04515 8.57901 368 ft 9 kts 70°
2026-05-04 20:11 50.04520 8.57923 367 ft 0 kts 70°
2026-05-04 20:13 50.04521 8.57926 367 ft 1 kts 70°
2026-05-04 20:13 50.04535 8.57978 366 ft 10 kts 63°
2026-05-04 20:13 50.04621 8.58010 361 ft 17 kts 340°
2026-05-04 20:14 50.04724 8.57955 364 ft 13 kts 354°
2026-05-04 20:14 50.04789 8.58015 360 ft 10 kts 55°
2026-05-04 20:14 50.04819 8.58120 364 ft 12 kts 69°
2026-05-04 20:14 50.04851 8.58256 362 ft 16 kts 70°
2026-05-04 20:15 50.04894 8.58440 365 ft 20 kts 68°
2026-05-04 20:15 50.04947 8.58652 366 ft 22 kts 69°
2026-05-04 20:15 50.04991 8.58834 364 ft 10 kts 69°
2026-05-04 20:15 50.04995 8.58886 360 ft 4 kts 102°
2026-05-04 20:16 50.04966 8.58921 361 ft 4 kts 158°
2026-05-04 20:16 50.04950 8.58930 368 ft 4 kts 160°
2026-05-04 20:16 50.04933 8.58939 362 ft 1 kts 160°
2026-05-04 20:16 50.04931 8.58941 366 ft 1 kts 160°
2026-05-04 20:17 50.04928 8.58942 365 ft 0 kts 160°